IZ3LCH-13 Weather Reports


time (UTC)temp
C
wind
direction
speed
KPH
gust
KPH
rain 1hr
cm
rain 24hr
cm
rain mn
cm
humidity
%
barometer
mb
20260506205003 15 47 0.0 3.2 0.00 0.03 0.03 87 1010.5
20260506204503 15 47 0.0 3.2 0.00 0.03 0.03 86 1010.0
20260506204003 15 47 0.0 3.2 0.00 0.03 0.03 86 1010.1
20260506203503 15 47 0.0 3.2 0.00 0.03 0.03 86 1010.1
20260506203003 15 47 0.0 3.2 0.00 0.03 0.03 86 1010.3
20260506202503 15 47 0.0 3.2 0.00 0.03 0.03 86 1010.2
20260506202003 15 47 0.0 3.2 0.00 0.03 0.03 86 1010.4
20260506201503 15 47 0.0 3.2 0.00 0.03 0.03 86 1010.1
20260506201003 15 47 0.0 3.2 0.00 0.03 0.03 86 1010.0
20260506200503 15 47 0.0 3.2 0.00 0.03 0.03 86 1010.0
20260506200003 15 47 0.0 3.2 0.00 0.03 0.03 85 1010.1
20260506195503 15 47 0.0 3.2 0.00 0.03 0.03 85 1010.2
20260506195003 15 47 0.0 3.2 0.00 0.03 0.03 85 1009.9
20260506194503 15 47 0.0 3.2 0.00 0.03 0.03 85 1009.9
20260506194003 15 47 0.0 3.2 0.00 0.03 0.03 85 1009.7
20260506193503 15 47 0.0 3.2 0.00 0.03 0.03 85 1009.4
20260506193003 15 47 0.0 3.2 0.00 0.03 0.03 85 1009.6
20260506192503 15 47 0.0 3.2 0.00 0.03 0.03 85 1009.5
20260506192003 16 47 0.0 3.2 0.00 0.03 0.03 85 1009.5
20260506191503 16 47 0.0 3.2 0.00 0.03 0.03 85 1009.5
20260506191003 16 47 0.0 3.2 0.00 0.03 0.03 85 1009.4
20260506190503 16 47 0.0 3.2 0.00 0.03 0.03 85 1009.3
20260506190004 16 47 0.0 3.2 0.00 0.03 0.03 85 1009.2
20260506185503 16 47 0.0 3.2 0.00 0.03 0.03 85 1009.3
20260506185003 16 47 0.0 3.2 0.00 0.03 0.03 84 1009.2
20260506184503 16 47 0.0 3.2 0.00 0.03 0.03 84 1009.2
20260506184003 16 47 0.0 3.2 0.00 0.03 0.03 84 1009.3
20260506183503 16 47 0.0 3.2 0.00 0.03 0.03 84 1009.1
20260506183003 16 47 0.0 3.2 0.00 0.03 0.03 84 1008.9
20260506182503 16 47 0.0 3.2 0.00 0.03 0.03 84 1008.9
20260506182003 16 47 0.0 3.2 0.00 0.03 0.03 84 1009.0
20260506181503 16 47 0.0 3.2 0.00 0.03 0.03 83 1008.7
20260506181003 16 47 0.0 3.2 0.00 0.03 0.03 83 1008.7
20260506180503 17 47 0.0 3.2 0.00 0.03 0.03 83 1008.6
20260506180004 17 47 0.0 3.2 0.00 0.03 0.03 83 1008.6
20260506175503 17 47 0.0 3.2 0.00 0.03 0.03 82 1008.5
20260506175003 17 47 0.0 3.2 0.00 0.03 0.03 82 1008.4
20260506174503 17 47 0.0 3.2 0.00 0.03 0.03 82 1008.4
20260506174003 17 47 0.0 3.2 0.00 0.03 0.03 82 1008.7
20260506173503 17 47 0.0 3.2 0.00 0.03 0.03 82 1008.8
20260506173003 17 47 0.0 3.2 0.00 0.03 0.03 82 1008.7
20260506172503 17 47 0.0 3.2 0.00 0.03 0.03 82 1008.8
20260506172003 17 47 0.0 3.2 0.00 0.03 0.03 82 1008.7
20260506171503 17 47 0.0 3.2 0.00 0.03 0.03 81 1008.5
20260506171003 17 47 0.0 3.2 0.00 0.03 0.03 81 1008.6
20260506170503 17 47 0.0 3.2 0.00 0.03 0.03 81 1008.3
20260506170003 17 47 0.0 3.2 0.00 0.03 0.03 81 1008.1
20260506165503 17 47 0.0 3.2 0.00 0.03 0.03 80 1008.5
20260506165003 17 47 0.0 3.2 0.00 0.03 0.03 80 1008.2
20260506164503 17 47 0.0 3.2 0.00 0.03 0.03 80 1008.4
20260506164003 17 47 0.0 3.2 0.00 0.03 0.03 80 1008.2
20260506163503 17 47 0.0 3.2 0.00 0.03 0.03 80 1008.4
20260506163003 17 47 0.0 3.2 0.00 0.03 0.03 80 1008.6
20260506162503 17 47 0.0 3.2 0.00 0.03 0.03 80 1008.5
20260506162003 17 47 0.0 3.2 0.00 0.03 0.03 79 1008.4
20260506161503 17 47 0.0 3.2 0.00 0.03 0.03 79 1008.6
20260506161003 18 47 0.0 3.2 0.00 0.03 0.03 78 1008.8
20260506160503 18 47 0.0 3.2 0.00 0.03 0.03 78 1008.7
20260506160003 18 75 1.6 12.9 0.00 0.03 0.03 77 1008.8
20260506155503 18 91 4.8 12.9 0.00 0.03 0.03 78 1008.4
20260506155003 18 102 6.4 14.5 0.00 0.03 0.03 77 1008.9
20260506154503 18 109 6.4 14.5 0.00 0.03 0.03 80 1008.6
20260506154003 18 109 6.4 11.3 0.00 0.03 0.03 81 1008.5
20260506153503 18 107 8.0 11.3 0.00 0.03 0.03 82 1008.8
20260506153003 18 106 8.0 9.7 0.00 0.03 0.03 82 1008.5
20260506152503 18 106 8.0 9.7 0.00 0.03 0.03 82 1008.6
20260506152003 18 106 8.0 9.7 0.00 0.03 0.03 82 1008.5
20260506151503 18 106 8.0 9.7 0.00 0.03 0.03 82 1008.6
20260506151003 17 104 8.0 12.9 0.00 0.03 0.03 82 1008.6
20260506150503 17 84 6.4 14.5 0.00 0.03 0.03 81 1008.5
20260506150003 17 55 6.4 14.5 0.00 0.03 0.03 81 1008.8
20260506145503 17 45 6.4 14.5 0.00 0.03 0.03 81 1008.8
20260506145003 17 46 6.4 11.3 0.00 0.03 0.03 82 1008.7
20260506144503 17 28 6.4 11.3 0.00 0.03 0.03 84 1008.7
20260506144003 17 3 8.0 8.0 0.00 0.03 0.03 84 1009.0
20260506143503 17 18 6.4 12.9 0.00 0.03 0.03 84 1009.0
20260506143003 17 37 6.4 12.9 0.00 0.03 0.03 84 1008.7
20260506142503 17 46 6.4 12.9 0.00 0.03 0.03 85 1009.0
20260506142003 17 42 6.4 14.5 0.00 0.03 0.03 85 1008.8
20260506141503 17 43 4.8 14.5 0.00 0.03 0.03 86 1008.9
20260506141003 17 52 4.8 9.7 0.00 0.03 0.03 86 1008.9
20260506140503 17 40 6.4 11.3 0.00 0.03 0.03 86 1008.9
20260506140003 17 37 6.4 11.3 0.00 0.03 0.03 87 1009.0
20260506135503 17 66 4.8 11.3 0.00 0.03 0.03 87 1009.0
20260506135003 17 82 4.8 11.3 0.00 0.03 0.03 87 1008.9
20260506134503 16 83 4.8 11.3 0.00 0.03 0.03 87 1009.1
20260506134003 16 83 4.8 11.3 0.00 0.03 0.03 87 1009.1
20260506133503 16 83 4.8 11.3 0.00 0.03 0.03 87 1009.2
20260506133003 16 83 4.8 11.3 0.00 0.03 0.03 87 1009.0
20260506132503 16 83 4.8 11.3 0.00 0.03 0.03 87 1009.1
20260506132003 16 83 4.8 11.3 0.00 0.03 0.03 87 1009.5
20260506131503 16 83 4.8 11.3 0.00 0.03 0.03 87 1009.1
20260506131003 16 83 4.8 11.3 0.00 0.03 0.03 87 1009.4
20260506130503 16 83 4.8 11.3 0.00 0.03 0.03 87 1009.3
20260506130003 16 83 4.8 11.3 0.00 0.03 0.03 86 1009.1
20260506125503 16 83 4.8 11.3 0.00 0.03 0.03 85 1009.2
20260506125003 16 83 4.8 11.3 0.00 0.03 0.03 84 1009.3
20260506124503 16 83 4.8 11.3 0.00 0.03 0.03 84 1009.4
20260506124003 16 83 4.8 11.3 0.00 0.03 0.03 83 1009.7
20260506123503 17 83 4.8 11.3 0.00 0.03 0.03 82 1009.7
20260506123003 17 83 4.8 11.3 0.00 0.03 0.03 81 1009.1
20260506122503 17 83 4.8 11.3 0.00 0.03 0.03 80 1009.4
20260506122003 17 83 4.8 11.3 0.00 0.03 0.03 80 1009.2
20260506121503 17 83 4.8 11.3 0.00 0.03 0.03 81 1009.4
20260506121003 17 83 4.8 11.3 0.00 0.03 0.03 81 1009.3
20260506120503 17 83 4.8 11.3 0.00 0.03 0.03 82 1009.1
20260506120003 17 83 4.8 11.3 0.00 0.03 0.03 82 1009.4
20260506115503 17 83 4.8 11.3 0.00 0.03 0.03 83 1009.4
20260506115003 17 83 4.8 11.3 0.00 0.03 0.03 83 1009.7
20260506114503 17 83 4.8 11.3 0.00 0.03 0.03 82 1009.7
20260506114003 17 83 4.8 11.3 0.00 0.03 0.03 82 1009.7
20260506113503 17 83 4.8 11.3 0.00 0.03 0.03 81 1009.7
20260506113003 17 79 4.8 12.9 0.00 0.03 0.03 81 1009.6
20260506112503 17 74 6.4 16.1 0.00 0.03 0.03 82 1010.0
20260506112003 17 60 6.4 16.1 0.00 0.03 0.03 82 1009.7
20260506111503 17 50 6.4 12.9 0.00 0.03 0.03 81 1009.7
20260506111003 17 57 6.4 16.1 0.00 0.03 0.03 81 1009.9
20260506110503 17 61 6.4 16.1 0.00 0.03 0.03 82 1010.1
20260506110003 17 55 8.0 14.5 0.00 0.03 0.03 83 1010.1
20260506105503 17 57 6.4 14.5 0.00 0.03 0.03 83 1010.2
20260506105003 17 78 6.4 14.5 0.00 0.03 0.03 83 1010.2
20260506104503 17 94 8.0 16.1 0.00 0.03 0.03 83 1010.4
20260506104003 16 98 8.0 16.1 0.00 0.03 0.03 84 1010.3
20260506103503 16 100 8.0 14.5 0.00 0.03 0.03 84 1010.4
20260506103003 16 99 8.0 9.7 0.00 0.03 0.03 83 1010.3
20260506102503 16 99 8.0 9.7 0.00 0.03 0.03 83 1010.3
20260506102003 16 99 8.0 9.7 0.00 0.03 0.03 83 1010.2
20260506101503 16 99 8.0 9.7 0.00 0.03 0.03 83 1010.5
20260506101003 16 97 8.0 9.7 0.00 0.03 0.03 82 1010.5
20260506100503 16 96 6.4 11.3 0.00 0.03 0.03 82 1010.6
20260506100003 16 99 6.4 14.5 0.00 0.03 0.03 83 1010.6
20260506095503 16 112 6.4 14.5 0.00 0.03 0.03 84 1010.6
20260506095003 16 121 6.4 11.3 0.00 0.03 0.03 85 1010.7
20260506094503 16 119 6.4 14.5 0.00 0.03 0.03 86 1010.5
20260506094003 16 112 8.0 14.5 0.00 0.03 0.03 86 1010.4
20260506093503 16 110 8.0 16.1 0.00 0.03 0.03 86 1010.5
20260506093003 16 109 4.8 16.1 0.00 0.03 0.03 86 1010.5
20260506092503 16 102 3.2 3.2 0.00 0.03 0.03 85 1010.6
20260506092003 16 102 3.2 3.2 0.00 0.03 0.03 85 1011.0
20260506091503 16 102 3.2 3.2 0.00 0.03 0.03 85 1010.6
20260506091003 16 102 3.2 3.2 0.00 0.05 0.03 84 1010.7
20260506090503 16 102 3.2 3.2 0.00 0.05 0.03 84 1010.7
20260506090003 16 102 3.2 3.2 0.00 0.05 0.03 84 1010.7
20260506085503 16 102 3.2 3.2 0.00 0.05 0.03 84 1010.7
20260506085003 16 102 3.2 3.2 0.00 0.05 0.03 83 1010.7
20260506084503 16 102 3.2 3.2 0.00 0.05 0.03 83 1010.2
20260506084003 16 116 3.2 9.7 0.00 0.05 0.03 84 1010.4
20260506083503 16 108 3.2 9.7 0.00 0.05 0.03 84 1010.5
20260506083003 16 63 3.2 8.0 0.00 0.05 0.03 85 1010.4
20260506082503 16 53 3.2 9.7 0.00 0.05 0.03 85 1010.1
20260506082003 16 66 1.6 9.7 0.00 0.05 0.03 86 1010.2
20260506081503 16 95 0.0 4.8 0.00 0.05 0.03 86 1010.2
20260506081003 16 100 1.6 8.0 0.00 0.05 0.03 87 1010.2
20260506080503 15 118 3.2 9.7 0.00 0.05 0.03 87 1010.2
20260506073503 15 333 0.0 1.6 0.00 0.05 0.03 88 1010.3
20260506073003 15 333 0.0 1.6 0.00 0.05 0.03 89 1010.4
20260506072503 15 333 0.0 1.6 0.00 0.05 0.03 89 1010.6
20260506072003 15 333 0.0 1.6 0.00 0.05 0.03 88 1010.8
20260506071503 15 333 0.0 1.6 0.00 0.05 0.03 89 1010.5
20260506071003 15 333 0.0 1.6 0.00 0.05 0.03 89 1010.5
20260506070503 15 333 0.0 1.6 0.00 0.05 0.03 89 1010.3
20260506062503 14 333 0.0 1.6 0.00 0.05 0.03 89 1010.3
20260506062003 13 333 0.0 1.6 0.00 0.05 0.03 89 1010.0
20260506061503 13 333 0.0 1.6 0.00 0.05 0.03 89 1010.0
20260506061003 13 342 0.0 3.2 0.00 0.05 0.03 89 1010.6
20260506060503 13 15 0.0 3.2 0.00 0.05 0.03 89 1010.1
20260506051003 13 79 3.2 6.4 0.00 0.05 0.03 88 1010.9
20260506050503 13 79 3.2 6.4 0.00 0.05 0.03 88 1010.4
20260506045003 13 81 1.6 3.2 0.00 0.05 0.03 88 1011.0
20260506044503 13 88 1.6 3.2 0.00 0.05 0.03 88 1011.0
20260506044003 13 77 0.0 3.2 0.00 0.05 0.03 88 1010.9
20260506043503 13 5 1.6 6.4 0.00 0.05 0.03 88 1010.9
20260506043003 13 330 3.2 9.7 0.00 0.05 0.03 88 1010.8
20260506042503 13 311 4.8 9.7 0.00 0.05 0.03 88 1010.8
20260506042003 13 305 4.8 9.7 0.03 0.05 0.03 88 1010.6
20260506041503 13 315 3.2 6.4 0.03 0.05 0.03 88 1010.3
20260506041003 13 319 4.8 8.0 0.00 0.05 0.03 88 1010.2
20260506040503 12 332 3.2 9.7 0.00 0.05 0.03 88 1010.2
20260506040004 12 14 4.8 9.7 0.00 0.05 0.03 88 1010.2
20260506035503 12 30 4.8 9.7 0.00 0.05 0.03 88 1010.0
20260506035003 12 34 3.2 8.0 0.00 0.05 0.03 88 1010.2
20260506034503 12 24 6.4 14.5 0.03 0.05 0.03 87 1009.8
20260506034003 12 18 8.0 14.5 0.03 0.05 0.03 87 1010.0
20260506033503 13 14 6.4 14.5 0.03 0.05 0.03 87 1010.0
20260506033004 13 8 6.4 11.3 0.03 0.05 0.03 86 1010.5
20260506032503 13 359 6.4 11.3 0.03 0.05 0.03 86 1010.3
20260506032003 13 360 6.4 12.9 0.00 0.05 0.00 86 1010.5
20260506031503 13 9 4.8 12.9 0.00 0.05 0.00 86 1010.7
20260506031003 13 342 4.8 9.7 0.00 0.05 0.00 86 1010.6
20260506030503 13 238 4.8 11.3 0.00 0.05 0.00 86 1011.0
20260506030003 13 180 4.8 11.3 0.00 0.05 0.00 86 1011.2
20260506025503 13 126 3.2 9.7 0.00 0.05 0.00 86 1011.3
20260506024503 13 11 1.6 4.8 0.00 0.03 0.00 86 1011.2
20260506024003 13 352 1.6 4.8 0.00 0.03 0.00 86 1010.9
20260506023503 13 341 3.2 6.4 0.00 0.03 0.00 86 1011.2
20260506023003 13 359 3.2 8.0 0.00 0.03 0.00 86 1011.2
20260506022503 13 360 3.2 8.0 0.00 0.03 0.00 86 1011.3
20260506022003 13 355 4.8 9.7 0.00 0.03 0.00 86 1011.4
20260506021503 13 356 4.8 9.7 0.00 0.03 0.00 85 1011.2
20260506021003 13 356 4.8 9.7 0.00 0.03 0.00 85 1011.2
20260506020503 13 360 4.8 8.0 0.00 0.03 0.00 85 1011.3
20260506020003 13 2 4.8 8.0 0.00 0.03 0.00 85 1011.2
20260506015503 13 359 4.8 8.0 0.00 0.03 0.00 85 1011.2
20260506015003 13 360 4.8 9.7 0.00 0.03 0.00 85 1011.5
20260506014503 13 3 4.8 9.7 0.00 0.03 0.00 85 1011.7
20260506014003 13 2 4.8 9.7 0.00 0.03 0.00 85 1011.2
20260506013503 13 360 4.8 11.3 0.00 0.03 0.00 85 1011.3
20260506013003 13 359 6.4 11.3 0.00 0.03 0.00 85 1011.2
20260506012503 13 360 6.4 11.3 0.00 0.03 0.00 85 1011.5
20260506012003 13 2 6.4 11.3 0.00 0.03 0.00 85 1011.3
20260506011503 13 2 6.4 11.3 0.00 0.03 0.00 85 1011.5
20260506011003 13 3 6.4 11.3 0.00 0.03 0.00 85 1011.7
20260506010503 13 12 6.4 12.9 0.00 0.03 0.00 85 1011.4
20260506010003 13 15 4.8 12.9 0.00 0.03 0.00 85 1011.6
20260506005503 13 14 4.8 9.7 0.00 0.03 0.00 85 1011.6
20260506005003 13 15 3.2 8.0 0.00 0.03 0.00 85 1011.5
20260506004504 13 11 3.2 6.4 0.00 0.03 0.00 85 1011.6
20260506004003 13 7 3.2 6.4 0.00 0.03 0.00 85 1011.6
20260506003503 13 16 3.2 6.4 0.00 0.03 0.00 85 1011.7
20260506003003 13 25 3.2 6.4 0.00 0.03 0.00 85 1011.8
20260506002503 13 15 3.2 6.4 0.00 0.03 0.00 85 1011.6
20260506002003 13 357 3.2 6.4 0.00 0.03 0.00 85 1011.8
20260506001503 13 353 3.2 6.4 0.00 0.03 0.00 85 1011.8
20260506001003 13 355 4.8 8.0 0.00 0.03 0.00 85 1011.8
20260506000503 13 357 4.8 8.0 0.00 0.03 0.00 85 1011.6
20260506000003 13 360 4.8 11.3 0.00 0.03 0.00 85 1011.7
20260505235503 13 354 4.8 11.3 0.00 0.03 0.00 85 1011.9
20260505235003 13 351 6.4 12.9 0.00 0.03 0.00 85 1011.8
20260505234503 13 354 4.8 12.9 0.00 0.03 0.00 86 1011.6
20260505234003 13 357 4.8 12.9 0.00 0.03 0.00 86 1011.9
20260505233503 13 356 4.8 12.9 0.00 0.03 0.00 86 1011.8
20260505233003 13 357 4.8 11.3 0.00 0.03 0.00 86 1011.9
20260505232503 13 3 4.8 11.3 0.00 0.03 0.00 86 1012.0
20260505232003 13 7 4.8 11.3 0.00 0.03 0.00 86 1012.0
20260505231503 13 1 6.4 12.9 0.00 0.03 0.00 86 1011.9
20260505231003 13 1 6.4 12.9 0.00 0.03 0.00 86 1011.7
20260505230503 13 4 6.4 12.9 0.00 0.03 0.00 86 1012.1
20260505230003 13 5 8.0 17.7 0.00 0.03 0.00 86 1011.9
20260505225503 13 2 9.7 17.7 0.00 0.03 0.00 86 1012.1
20260505225003 13 2 9.7 17.7 0.00 0.03 0.00 86 1012.0
20260505224503 13 3 9.7 19.3 0.00 0.03 0.00 86 1012.3
20260505224003 13 4 9.7 19.3 0.00 0.03 0.00 86 1012.3
20260505223503 13 4 9.7 19.3 0.00 0.03 0.00 86 1012.3
20260505223003 13 9 9.7 20.9 0.00 0.03 0.00 85 1012.5
20260505222503 13 14 9.7 20.9 0.00 0.03 0.00 85 1012.2
20260505222003 13 12 9.7 17.7 0.00 0.03 0.00 85 1012.3
20260505221503 13 6 8.0 16.1 0.00 0.03 0.00 85 1012.4
20260505221003 13 3 8.0 16.1 0.00 0.03 0.00 85 1012.4
20260505220503 13 5 8.0 16.1 0.00 0.03 0.00 84 1012.7
20260505220003 13 4 6.4 14.5 0.00 0.03 0.00 84 1012.2
20260505215503 13 7 6.4 12.9 0.00 0.03 0.03 84 1012.6
20260505215003 13 6 6.4 12.9 0.00 0.03 0.03 84 1012.7
20260505214503 13 360 8.0 16.1 0.00 0.03 0.03 84 1012.5
20260505214003 13 6 8.0 16.1 0.00 0.03 0.03 83 1012.5
20260505213503 13 9 8.0 14.5 0.00 0.03 0.03 83 1012.6
20260505213003 14 3 8.0 14.5 0.00 0.03 0.03 83 1012.8
20260505212503 14 1 8.0 17.7 0.00 0.03 0.03 83 1012.7
20260505212003 14 360 8.0 17.7 0.00 0.03 0.03 83 1012.7
20260505211503 14 360 6.4 17.7 0.00 0.03 0.03 83 1012.8
20260505211003 14 359 4.8 9.7 0.00 0.03 0.03 83 1012.9
20260505210503 14 359 6.4 11.3 0.00 0.03 0.03 83 1013.0
20260505210003 14 4 6.4 12.9 0.00 0.03 0.03 83 1013.0
20260505205503 14 1 8.0 12.9 0.00 0.03 0.03 83 1013.0